{"data":{"norad_id":64422,"epoch":"2026-05-25T00:01:58.802592Z","epoch_age_seconds":64986,"freshness":"FRESH","line1":"1 64422U 25129L   26145.00137503  .00002002  00000+0  17549-3 0  9996","line2":"2 64422  70.0008 242.2226 0003887 269.1033  90.9681 14.98333587 52714","mean_motion":14.98333587,"eccentricity":0.0003887,"inclination_deg":70.0008,"raan_deg":242.2226,"arg_perigee_deg":269.1033,"mean_anomaly_deg":90.9681,"bstar":0.00017549,"rev_number":5271,"period_min":96.106769046218,"perigee_km":569.34326279987,"apogee_km":574.74633413,"semimajor_km":6950.1817984649,"source":"CELESTRAK","updated_at":"2026-05-25T13:38:20.440624Z"}}